This demonstration page uses our WeatherBlox Daily Observations layout. Learn more.

40.92945, -100.16068

Hourly Observations for January 6, 2015

Temp ( °F °C ) Dew Point ( °F °C ) Humidity (%) Winds ( mph kmh ) Pressure ( in mb ) Visibility ( mi km ) Precip ( " mm )
12:15 am 00:15 Clear 19 -7 12 -11.2 72 72 N 24 39 30.5 1033 10 16.0934 N/A
12:35 am 00:35 Clear 18 -7.8 10 -12 72 72 N 22 35 30.5 1033 10 16.0934 N/A
12:55 am 00:55 Clear 17 -8.6 9 -12.7 73 73 N 23 37 30.56 1035 10 16.0934 N/A
1:15 am 01:15 Clear 15 -9.4 8 -13.6 72 72 NNW 18 30 30.56 1035 10 16.0934 N/A
1:35 am 01:35 Clear 14 -9.8 7 -13.9 72 72 N 14 22 30.56 1035 10 16.0934 N/A
1:55 am 01:55 Clear 13 -10.5 6 -14.6 72 72 N 17 28 30.59 1036 10 16.0934 N/A
2:15 am 02:15 Clear 12 -10.9 6 -14.5 75 75 N 9 15 30.62 1037 10 16.0934 N/A
2:35 am 02:35 Clear 12 -11.1 5 -15 73 73 N 12 19 30.62 1037 10 16.0934 N/A
2:55 am 02:55 Clear 11 -11.4 5 -15.1 74 74 N 13 20 30.62 1037 10 16.0934 N/A
3:15 am 03:15 Clear 11 -11.5 5 -15 76 76 N 10 17 30.65 1038 10 16.0934 N/A
3:35 am 03:35 Clear 11 -11.5 5 -15.2 74 74 NNW 7 11 30.65 1038 10 16.0934 N/A
3:55 am 03:55 Clear 11 -11.8 4 -15.3 75 75 NNW 5 7 30.65 1038 10 16.0934 N/A
4:15 am 04:15 Clear 10 -12.1 5 -15.2 78 78 NW 3 6 30.65 1038 10 16.0934 N/A
4:35 am 04:35 Clear 10 -12.3 4 -15.3 79 79 NW 6 9 30.65 1038 10 16.0934 N/A
4:55 am 04:55 Clear 9 -12.8 4 -15.7 79 79 NW 6 9 30.68 1039 10 16.0934 N/A
5:15 am 05:15 Clear 9 -12.7 4 -15.6 79 79 NW 3 6 30.68 1039 10 16.0934 N/A
5:35 am 05:35 Clear 8 -13.1 3 -16 79 79 Calm 30.68 1039 10 16.0934 N/A
5:55 am 05:55 Clear 8 -13.2 3 -16 80 80 W 3 6 30.68 1039 10 16.0934 N/A
6:15 am 06:15 Clear 8 -13.6 3 -16.1 82 82 Calm 30.68 1039 10 16.0934 N/A
6:35 am 06:35 Clear 7 -13.7 3 -16.3 81 81 NW 6 9 30.71 1040 10 16.0934 N/A
6:55 am 06:55 Clear 8 -13.6 3 -16 82 82 WNW 5 7 30.71 1040 10 16.0934 N/A
7:15 am 07:15 Mostly Cloudy 9 -12.8 4 -15.3 82 82 W 6 9 30.71 1040 10 16.0934 N/A
7:35 am 07:35 Partly Cloudy 9 -12.7 5 -15.2 82 82 WNW 6 9 30.71 1040 10 16.0934 N/A
7:55 am 07:55 Mostly Cloudy 10 -12.5 5 -15 82 82 W 5 7 30.71 1040 10 16.0934 N/A
8:15 am 08:15 Partly Cloudy 10 -12.3 5 -15 80 80 Calm 30.71 1040 10 16.0934 N/A
8:35 am 08:35 Mostly Cloudy 9 -12.7 4 -15.4 80 80 Calm 30.74 1041 10 16.0934 N/A
8:55 am 08:55 Mostly Cloudy 10 -12 6 -14.7 81 81 Calm 30.71 1040 10 16.0934 N/A
9:15 am 09:15 Partly Cloudy 11 -11.4 6 -14.2 80 80 Calm 30.68 1039 10 16.0934 N/A
9:35 am 09:35 Partly Cloudy 13 -10.5 7 -14 76 76 SW 5 7 30.68 1039 10 16.0934 N/A
9:55 am 09:55 undefined N/A N/A N/A undefined N/A N/A N/A N/A
10:15 am 10:15 Partly Cloudy 16 -9 8 -13.6 70 70 Calm 30.65 1038 10 16.0934 N/A
10:35 am 10:35 Sunny 17 -8.6 8 -13.5 68 68 SW 3 6 30.65 1038 10 16.0934 N/A
10:55 am 10:55 Sunny 18 -7.7 9 -12.9 67 67 Calm 30.62 1037 10 16.0934 N/A
11:15 am 11:15 Sunny 19 -7.5 9 -12.8 66 66 Calm 30.59 1036 10 16.0934 N/A
11:35 am 11:35 Sunny 19 -7 10 -12.5 65 65 Calm 30.59 1036 10 16.0934 N/A
11:55 am 11:55 Sunny 20 -6.5 10 -12.1 65 65 Calm 30.56 1035 10 16.0934 0 0
12:15 pm 12:15 Sunny 22 -5.5 11 -11.6 63 63 SSE 5 7 30.56 1035 10 16.0934 N/A
12:35 pm 12:35 Sunny 23 -5.1 13 -10.8 65 65 SSE 5 7 30.53 1034 10 16.0934 N/A
12:55 pm 12:55 Sunny 25 -4 12 -11.3 57 57 Calm 30.53 1034 10 16.0934 N/A
1:15 pm 13:15 Sunny 25 -4.1 13 -10.8 60 60 Calm 30.5 1033 10 16.0934 N/A
1:35 pm 13:35 Sunny 25 -4 13 -10.7 60 60 S 3 6 30.5 1033 10 16.0934 N/A
1:55 pm 13:55 Sunny 25 -3.9 13 -10.3 61 61 SSE 6 9 30.5 1033 10 16.0934 N/A
2:15 pm 14:15 Sunny 25 -3.7 13 -10.3 61 61 SSE 6 9 30.48 1032 10 16.0934 N/A
2:35 pm 14:35 Sunny 26 -3.6 15 -9.6 64 64 S 7 11 30.48 1032 10 16.0934 N/A
2:55 pm 14:55 Sunny 26 -3.3 15 -9.7 62 62 SSW 5 7 30.48 1032 10 16.0934 N/A
3:15 pm 15:15 Sunny 27 -3 15 -9.7 60 60 S 6 9 30.48 1032 10 16.0934 N/A
3:35 pm 15:35 Sunny 27 -3 14 -9.9 59 59 Calm 30.48 1032 10 16.0934 N/A
3:55 pm 15:55 Sunny 27 -3 15 -9.6 61 61 S 6 9 30.48 1032 10 16.0934 N/A
4:15 pm 16:15 Partly Cloudy 27 -2.7 15 -9.5 60 60 Calm 30.48 1032 10 16.0934 N/A
4:35 pm 16:35 Cloudy 26 -3.2 16 -8.7 66 66 ENE 3 6 30.5 1033 10 16.0934 N/A
4:55 pm 16:55 Cloudy 26 -3.3 16 -8.9 66 66 Calm 30.48 1032 10 16.0934 N/A
5:15 pm 17:15 Cloudy 26 -3.5 17 -8.5 69 69 NE 7 11 30.53 1034 10 16.0934 N/A
5:35 pm 17:35 Cloudy 25 -3.9 17 -8.4 71 71 NE 7 11 30.53 1034 10 16.0934 N/A
5:55 pm 17:55 Cloudy 25 -3.9 17 -8.4 71 71 NE 7 11 30.53 1034 10 16.0934 N/A
6:15 pm 18:15 Cloudy 25 -3.8 17 -8.3 71 71 ENE 7 11 30.53 1034 10 16.0934 N/A
6:35 pm 18:35 Cloudy 25 -3.8 18 -8 73 73 NE 8 13 30.53 1034 10 16.0934 N/A
6:55 pm 18:55 Cloudy 25 -3.7 18 -7.8 74 74 NNE 8 13 30.56 1035 10 16.0934 N/A
7:15 pm 19:15 Cloudy 26 -3.5 18 -7.8 72 72 NNE 10 17 30.56 1035 10 16.0934 N/A
7:35 pm 19:35 Cloudy 25 -4.1 15 -9.5 66 66 NNE 22 35 30.65 1038 10 16.0934 N/A
7:55 pm 19:55 Cloudy 23 -4.8 15 -9.6 69 69 NNE 21 33 30.65 1038 10 16.0934 N/A
8:15 pm 20:15 Cloudy 21 -6 14 -10 74 74 NNE 20 31 30.68 1039 10 16.0934 N/A
8:35 pm 20:35 Cloudy 19 -7 12 -10.9 74 74 N 20 31 30.74 1041 10 16.0934 N/A
8:55 pm 20:55 Cloudy 18 -7.7 11 -11.7 73 73 N 24 39 30.74 1041 10 16.0934 N/A
9:15 pm 21:15 Cloudy 17 -8.5 10 -12.1 76 76 NNE 24 39 30.77 1042 10 16.0934 N/A
9:35 pm 21:35 Cloudy 16 -9 9 -12.7 75 75 NNE 18 30 30.8 1043 10 16.0934 N/A
9:55 pm 21:55 Mostly Cloudy 15 -9.4 8 -13.1 75 75 NNE 21 33 30.83 1044 10 16.0934 N/A
10:15 pm 22:15 Partly Cloudy 15 -9.5 9 -13 76 76 N 16 26 30.83 1044 10 16.0934 N/A
10:35 pm 22:35 Mostly Cloudy 15 -9.4 8 -13.3 74 74 N 20 31 30.86 1045 10 16.0934 N/A
10:55 pm 22:55 Cloudy 15 -9.5 8 -13.5 73 73 N 22 35 30.86 1045 10 16.0934 N/A
11:15 pm 23:15 Cloudy 15 -9.5 8 -13.5 73 73 N 21 33 30.89 1046 10 16.0934 N/A
11:35 pm 23:35 Windy with Snow Likely 14 -9.8 8 -13.2 76 76 N 22 35 30.89 1046 1.5 2.41401 N/A
11:55 pm 23:55 Cloudy with Light Snow 14 -10 8 -13.1 78 78 N 16 26 30.92 1047 7 11.26538 N/A

Powered by AerisWeather